User: anonymous   Login
Location: Unspecified
(0.0000°N, 0.0000°E)
Time: 12:48:35
(UTC+00:00)
Language:

Kosmos-2154 - Orbit

View from above orbital plane
View from above orbital plane
View from above satellite
View from above satellite

Ground track
Ground track

The orbit data is extracted from the following two-line orbital elements,

1 21666U 91059A   17229.91909063 +.00000018 +00000-0 +31402-5 0  9997
2 21666 082.9097 344.1135 0025243 174.6309 324.8979 13.73302625302138
Epoch (UTC): 17 August 2017 22:03:29
Eccentricity: 0.0025243
inclination: 82.9097°
perigee height: 969 km
apogee height: 1006 km
right ascension of ascending node: 344.1135°
argument of perigee: 174.6309°
revolutions per day: 13.73302625
mean anomaly at epoch: 324.8979°
orbit number at epoch: 30213

The dashed part of the orbit path shows where the satellite is in the earth's shadow,  

DLR